Fitchburg, MA

7:39 AM EDT on October 17, 2017 (GMT -0400)
Fitchburg Municipal

Weather History for KFIT - May, 2014

Change the Weather History Date:

Thursday, May 8, 2014

  Actual Average (KORH) Record (KORH)
Temperature  
Mean Temperature 56 °F -  
Max Temperature 73 °F 61 °F 90 °F (1936)
Min Temperature 41 °F 41 °F 28 °F (1956)
Degree Days  
Heating Degree Days 8    
Growing Degree Days 6 (Base 50)    
Moisture  
Dew Point 38 °F    
Average Humidity 55    
Maximum Humidity 81    
Minimum Humidity 26    
Precipitation  
Precipitation 0.00 in - - ()
Sea Level Pressure  
Sea Level Pressure 30.16 in    
Wind  
Wind Speed 4 mph (WNW)    
Max Wind Speed 13 mph    
Max Gust Speed 17 mph    
Visibility 10 miles    
Events      
Averages and records for this station are not official NWS values.
T = Trace of Precipitation, MM = Missing Value Source: NWS Daily Summary

Daily Weather History Graph

Daily Weather History Graph

Search for Another Location

Airport or City:

Trip Planner

Search our weather history database for the weather conditions in past years. The results will help you decide how hot, cold, wet, or windy it might be!

Date:

Astronomy

May. 08, 2014 Rise Set
Actual Time 5:32 AM EDT 7:54 PM EDT
Civil Twilight 5:01 AM EDT 8:26 PM EDT
Nautical Twilight 4:22 AM EDT 9:05 PM EDT
Astronomical Twilight 3:38 AM EDT 9:49 PM EDT
Moon 1:44 PM EDT (5/8) 2:10 AM EDT (5/8)
Length of Visible Light 15h 25m
Length of Day
14h 21m
Waxing Gibbous, 64% of the Moon is Illuminated
May 8
Waxing Gibbous
May 14
Full
May 21
Last Quarter
May 28
New
Jun 5
First Quarter

Hourly Weather History & Observations

Time (EDT) Temp. Windchill Dew Point Humidity Pressure Visibility Wind Dir Wind Speed Gust Speed Precip Events Conditions
12:52 AM 45.0 °F 43.5 °F 30.9 °F 58% 30.19 in 10.0 mi NNW 3.5 mph - N/A   Clear
1:52 AM 43.0 °F 40.3 °F 30.0 °F 60% 30.18 in 10.0 mi WNW 4.6 mph - N/A   Clear
2:52 AM 41.0 °F - 30.9 °F 67% 30.19 in 10.0 mi Calm Calm - N/A   Clear
3:52 AM 42.1 °F 40.2 °F 30.9 °F 65% 30.19 in 10.0 mi NNW 3.5 mph - N/A   Clear
4:52 AM 42.1 °F 39.2 °F 30.9 °F 65% 30.19 in 10.0 mi WNW 4.6 mph - N/A   Clear
5:52 AM 42.1 °F 39.2 °F 30.9 °F 65% 30.19 in 10.0 mi NW 4.6 mph - N/A   Clear
6:52 AM 46.0 °F 44.8 °F 34.0 °F 63% 30.20 in 10.0 mi NNW 3.5 mph - N/A   Clear
7:52 AM 51.1 °F - 35.1 °F 54% 30.19 in 10.0 mi Calm Calm - N/A   Clear
8:52 AM 57.9 °F - 26.1 °F 30% 30.19 in 10.0 mi ENE 3.5 mph - N/A   Clear
9:52 AM 61.0 °F - 30.0 °F 31% 30.19 in 10.0 mi Variable 4.6 mph - N/A   Clear
11:52 AM 68.0 °F - 32.0 °F 26% 30.16 in 10.0 mi South 6.9 mph - N/A   Clear
12:52 PM 70.0 °F - 33.1 °F 26% 30.14 in 10.0 mi Calm Calm - N/A   Clear
2:52 PM 72.0 °F - 39.9 °F 31% 30.09 in 10.0 mi SE 12.7 mph 17.3 mph N/A   Clear
3:52 PM 71.1 °F - 45.0 °F 39% 30.06 in 10.0 mi South 5.8 mph - N/A   Clear
5:52 PM 68.0 °F - 50.0 °F 52% 30.07 in 10.0 mi SSE 12.7 mph - N/A   Scattered Clouds
6:52 PM 68.0 °F - 50.0 °F 52% 30.09 in 10.0 mi South 9.2 mph - N/A   Clear
8:52 PM 61.0 °F - 51.1 °F 70% 30.15 in 10.0 mi SSW 4.6 mph - N/A   Clear
9:52 PM 59.0 °F - 51.1 °F 75% 30.17 in 10.0 mi Calm Calm - N/A   Clear
10:52 PM 57.0 °F - 51.1 °F 81% 30.16 in 10.0 mi Calm Calm - N/A   Clear
11:52 PM 57.0 °F - 51.1 °F 81% 30.19 in 10.0 mi NNW 3.5 mph - N/A   Clear